Doha, Qatar

4:04 PM +03 on May 29, 2017 (GMT +0300)
Doha

Weather History for 41170 - October, 2013

Change the Weather History Date:

Thursday, October 3, 2013

  Actual Average Record
Temperature  
Mean Temperature 91 °F -  
Max Temperature 99 °F 94 °F - ()
Min Temperature 83 °F 73 °F - ()
Cooling Degree Days 26    
Growing Degree Days 41 (Base 50)    
Moisture  
Dew Point 75 °F    
Average Humidity 63    
Maximum Humidity 79    
Minimum Humidity 32    
Precipitation  
Precipitation 0.00 in 0.00 in - ()
Sea Level Pressure  
Sea Level Pressure 29.80 in    
Wind  
Wind Speed 4 mph ()    
Max Wind Speed 9 mph    
Max Gust Speed -    
Visibility 6.4 miles    
Events      
T = Trace of Precipitation, MM = Missing Value Source: Averaged Metar Reports

Daily Weather History Graph

Daily Weather History Graph

Search for Another Location

Airport or City:

Trip Planner

Search our weather history database for the weather conditions in past years. The results will help you decide how hot, cold, wet, or windy it might be!

Date:

Astronomy

Oct. 03, 2013 Rise Set
Actual Time 5:26 AM +03 5:18 PM +03
Civil Twilight 5:03 AM +03 5:41 PM +03
Nautical Twilight 4:37 AM +03 6:07 PM +03
Astronomical Twilight 4:10 AM +03 6:34 PM +03
Moon 3:44 AM +03 (10/3) 4:09 PM +03 (10/3)
Length of Visible Light 12h 37m
Length of Day
11h 51m
Waning Crescent, 3% of the Moon is Illuminated
Oct 3
Waning Crescent
Oct 5
New
Oct 12
First Quarter
Oct 19
Full
Oct 27
Last Quarter

Hourly Weather History & Observations

Time (+03) Temp. Heat Index Dew Point Humidity Pressure Visibility Wind Dir Wind Speed Gust Speed Precip Events Conditions
12:00 AM 86.0 °F 91.8 °F 71.6 °F 62% 29.80 in - Variable 2.3 mph - N/A   Clear
12:30 AM 87.8 °F 97.6 °F 75.2 °F 66% 29.80 in - West 3.5 mph - N/A   Clear
1:00 AM 86.0 °F 93.4 °F 73.4 °F 66% 29.80 in - Variable 2.3 mph - N/A   Clear
1:30 AM 86.0 °F 93.4 °F 73.4 °F 66% 29.77 in - Variable 2.3 mph - N/A   Clear
2:00 AM 86.0 °F 95.1 °F 75.2 °F 70% 29.77 in - Variable 2.3 mph - N/A   Clear
3:00 AM 85 °F - 75 °F 65% 29.79 in 9 mi NW 5.8 mph - -  
3:00 AM 84.2 °F 92.3 °F 75.2 °F 74% 29.77 in - NW 5.8 mph - N/A   Clear
4:00 AM 84.2 °F 92.3 °F 75.2 °F 74% 29.80 in - NW 5.8 mph - N/A   Clear
4:30 AM 84.2 °F 92.3 °F 75.2 °F 74% 29.80 in - NW 4.6 mph - N/A   Clear
5:00 AM 84.2 °F 94.1 °F 77.0 °F 79% 29.80 in - NW 3.5 mph - N/A   Clear
5:30 AM 84.2 °F 94.1 °F 77.0 °F 79% 29.80 in - WNW 3.5 mph - N/A   Clear
6:00 AM 84.2 °F 94.1 °F 77.0 °F 79% 29.83 in 5.0 mi WNW 3.5 mph - N/A   Unknown
7:00 AM 86.0 °F 96.9 °F 77.0 °F 74% 29.83 in 5.6 mi NW 5.8 mph - N/A   Unknown
7:30 AM 87.8 °F 99.7 °F 77.0 °F 70% 29.83 in 5.6 mi NW 4.6 mph - N/A   Unknown
8:00 AM 89.6 °F 99.8 °F 75.2 °F 62% 29.83 in - NW 5.8 mph - N/A   Clear
8:30 AM 91.4 °F 100.1 °F 73.4 °F 55% 29.83 in - NW 3.5 mph - N/A   Clear
9:00 AM 94 °F - 71 °F 38% 29.86 in 7 mi 2.3 mph - -  
9:00 AM 93.2 °F 100.5 °F 71.6 °F 49% 29.86 in - Variable 2.3 mph - N/A   Clear
9:30 AM 96.8 °F 103.1 °F 69.8 °F 41% 29.86 in - Variable 2.3 mph - N/A   Clear
10:30 AM 98.6 °F 101.0 °F 64.4 °F 32% 29.83 in - SE 4.6 mph - N/A   Clear
11:00 AM 96.8 °F 107.3 °F 73.4 °F 47% 29.83 in - East 9.2 mph - N/A   Clear
11:30 AM 95.0 °F 107.4 °F 75.2 °F 53% 29.83 in - East 9.2 mph - N/A   Clear
12:00 PM 95.0 °F 104.5 °F 73.4 °F 49% 29.80 in - East 8.1 mph - N/A   Clear
12:30 PM 95.0 °F 104.5 °F 73.4 °F 49% 29.80 in - East 6.9 mph - N/A   Clear
1:00 PM 93.2 °F 102.4 °F 73.4 °F 52% 29.80 in - East 8.1 mph - N/A   Clear
1:30 PM 95.0 °F 107.4 °F 75.2 °F 53% 29.80 in - East 6.9 mph - N/A   Clear
2:00 PM 95.0 °F 107.4 °F 75.2 °F 53% 29.77 in - ESE 5.8 mph - N/A   Clear
2:30 PM 95.0 °F 107.4 °F 75.2 °F 53% 29.77 in - East 5.8 mph - N/A   Clear
3:00 PM 94 °F - 76 °F 48% 29.78 in 6 mi East 5.8 mph - -  
3:00 PM 95.0 °F 109.7 °F 77.0 °F 56% 29.77 in - East 5.8 mph - N/A   Clear
3:30 PM 95.0 °F 103.2 °F 71.6 °F 47% 29.77 in - ENE 5.8 mph - N/A   Clear
4:00 PM 93.2 °F 102.4 °F 73.4 °F 52% 29.77 in - NNE 5.8 mph - N/A   Clear
5:00 PM 91.4 °F 102.5 °F 75.2 °F 59% 29.77 in - NE 6.9 mph - N/A   Clear
6:00 PM 89.6 °F 104.7 °F 78.8 °F 70% 29.77 in 5.6 mi NNE 6.9 mph - N/A   Unknown
7:00 PM 87.8 °F 104.9 °F 80.6 °F 79% 29.80 in - NNE 5.8 mph - N/A   Clear
8:00 PM 87.8 °F 104.9 °F 80.6 °F 79% 29.80 in - North 5.8 mph - N/A   Clear
9:00 PM 88 °F - 81 °F 76% 29.82 in 7 mi North 6.9 mph - -  
9:00 PM 87.8 °F 104.9 °F 80.6 °F 79% 29.80 in - North 6.9 mph - N/A   Clear
9:30 PM 87.8 °F 97.6 °F 75.2 °F 66% 29.80 in - North 9.2 mph - N/A   Clear
10:00 PM 87.8 °F 99.7 °F 77.0 °F 70% 29.80 in - NNW 8.1 mph - N/A   Clear
10:30 PM 86.0 °F 99.3 °F 78.8 °F 79% 29.80 in - NNW 6.9 mph - N/A   Clear
11:00 PM 86.0 °F 96.9 °F 77.0 °F 74% 29.80 in - NNW 8.1 mph - N/A   Clear
11:30 PM 86.0 °F 96.9 °F 77.0 °F 74% 29.80 in - NNW 6.9 mph - N/A   Clear